Latest Coastal Weather Observations for Truscott

IDW60701

Issued at 6:45 pm WST Monday 21 April 2014 (issued every 10 minutes, with the page automatically refreshed every 10 minutes)

About coastal observations | Map of coastal stations | Coastal observations for WA | Marine services | Other Formats
Station Details ID: 001020 Name: TRUSCOTT Lat: -14.09 Lon: 126.39 Height: 51.0 m
Data from the previous 72 hours. | See also: Recent months at Truscott
Date/Time
WST
Temp

°C
Wind Pressure Rain
since 9am
mm
Weather Cloud Vis
km
Sea
Height
m
Swell
Dir
 
Speed
knots
Gust
knots
hPa Trend Height
m
Period
s
Dir
21/06:44pm 25.0 WSW 9 9 1012.0 - 10.0 - Partly cloudy 1 - - - -
21/06:36pm 25.0 S 13 18 1011.0 - 2.0 - Partly cloudy 5 - - - -
21/06:30pm 25.0 S 10 12 1011.0 - 0.0 - Partly cloudy 10 - - - -
21/06:00pm 28.0 SE 10 - 1010.3 - 0.0 - Cloudy 10 - - - -
21/05:30pm 30.0 NE 6 - 1010.0 - 0.0 - Cloudy 10 - - - -
21/05:00pm 31.0 NE 10 - 1009.0 - 0.0 - Partly cloudy 10 - - - -
21/04:30pm 31.0 NE 8 - 1009.0 - 0.0 - Partly cloudy 10 - - - -
21/04:00pm 31.0 N 7 - 1009.0 - 0.0 - - 10 - - - -
21/03:30pm 32.0 N 8 - 1008.0 - 0.0 - - 10 - - - -
21/03:00pm 31.8 N 9 - 1008.0 - 0.0 - - 10 - - - -
21/02:30pm 33.0 ENE 7 - 1008.0 - 0.0 - - 10 - - - -
21/02:00pm 34.0 E 7 - 1008.0 - 0.0 - - 10 - - - -
21/01:30pm 34.0 ENE 7 - 1008.0 - 0.0 - - 10 - - - -
21/01:00pm 34.0 NE 8 - 1009.0 - 0.0 - - 10 - - - -
21/12:30pm 33.0 ENE 8 - 1009.0 - 0.0 - - 10 - - - -
21/12:00pm 33.2 E 8 - 1009.0 - 0.0 - - 10 - - - -
21/11:30am 33.0 ESE 7 - 1009.0 - 0.0 - - 10 - - - -
21/11:00am 33.0 SE 8 - 1010.0 - 0.0 - - 10 - - - -
21/10:30am 32.0 ESE 8 10 1010.0 - 0.0 - - 10 - - - -
21/10:00am 32.0 ESE 8 - 1011.0 - 0.0 - - 10 - - - -
21/09:30am 32.0 SE 6 - 1011.0 - 0.0 - - 10 - - - -
21/09:00am 30.6 SSE 7 - 1010.9 - 0.0 - - 10 - - - -
21/08:30am 30.0 SSE 6 8 1011.0 - 0.0 - - 10 - - - -
21/08:00am 29.0 SSE 5 - 1011.0 - 0.0 - - 10 - - - -
21/07:30am 28.0 S 5 - 1011.0 - 0.0 - - 10 - - - -
21/07:00am 27.0 SSW 6 - 1011.0 - 0.0 - - 10 - - - -
21/06:30am 25.0 S 4 - 1010.0 - 0.0 - - 10 - - - -
21/06:00am 24.3 S 5 - 1009.9 - 0.0 - - 10 - - - -
21/05:30am 24.0 S 4 - 1010.0 - 0.0 - Partly cloudy 10 - - - -
21/05:00am 24.0 S 4 - 1010.0 - 0.0 - Partly cloudy 10 - - - -
21/04:30am 24.0 S 5 - 1009.0 - 0.0 - - 10 - - - -
21/04:00am 24.0 SSW 4 - 1009.0 - 0.0 - - 10 - - - -
21/03:30am 24.0 WSW 4 - 1009.0 - 0.0 - - 10 - - - -
21/03:00am 24.1 SW 3 - 1009.0 - 0.0 - - 9 - - - -
21/02:30am 24.0 SSE 4 - 1009.0 - 0.0 - - 10 - - - -
21/02:00am 24.0 SE 4 - 1009.0 - 0.0 - - 10 - - - -
21/01:30am 24.0 SE 4 - 1009.0 - 0.0 - - 10 - - - -
21/01:00am 25.0 SE 4 - 1009.0 - 0.0 - - 10 - - - -
21/12:30am 25.0 SE 4 - 1010.0 - 0.0 - - 10 - - - -
21/12:00am 24.9 ESE 4 4 1009.6 - 0.0 - - 10 - - - -
 
Date/Time
WST
Temp

°C
Wind Pressure Rain
since 9am
mm
Weather Cloud Vis
km
Sea
Height
m
Swell
Dir
 
Speed
knots
Gust
knots
hPa Trend Height
m
Period
s
Dir
20/11:30pm 26.0 E 4 - 1010.0 - 0.0 - - 10 - - - -
20/11:00pm 26.0 E 4 - 1010.0 - 0.0 - - 10 - - - -
20/10:30pm 27.0 E 5 - 1010.0 - 0.0 - Partly cloudy 10 - - - -
20/10:00pm 27.0 ENE 5 - 1010.0 - 0.0 - Partly cloudy 10 - - - -
20/09:30pm 27.0 ENE 5 - 1010.0 - 0.0 - Partly cloudy 10 - - - -
20/09:00pm 27.5 ENE 5 - 1010.5 - 0.0 - Partly cloudy 10 - - - -
20/08:30pm 27.0 ENE 5 - 1011.0 - 0.0 - - 10 - - - -
20/08:00pm 28.0 ENE 5 - 1010.0 - 0.0 - - 10 - - - -
20/07:30pm 28.0 ENE 5 - 1010.0 - 0.0 - - 10 - - - -
20/07:00pm 28.0 ENE 5 - 1010.0 - 0.0 - - 10 - - - -
20/06:30pm 29.0 NE 6 - 1009.0 - 0.0 - - 10 - - - -
20/06:00pm 28.8 NE 6 - 1008.9 - 0.0 - - 10 - - - -
20/05:30pm 29.0 NE 6 - 1009.0 - 0.0 - - 10 - - - -
20/05:00pm 30.0 NE 7 - 1008.0 - 0.0 - - 10 - - - -
20/04:30pm 31.0 NE 7 - 1008.0 - 0.0 - - 10 - - - -
20/04:00pm 32.0 NE 9 - 1008.0 - 0.0 - - 10 - - - -
20/03:30pm 32.0 ENE 8 - 1007.0 - 0.0 - - 10 - - - -
20/03:00pm 32.3 NE 9 - 1007.3 - 0.0 - Mostly clear 10 - - - -
20/02:30pm 32.0 ENE 8 - 1007.0 - 0.0 - Partly cloudy 10 - - - -
20/02:00pm 33.0 ENE 9 - 1007.0 - 0.0 - Partly cloudy 10 - - - -
20/01:30pm 33.0 NE 8 - 1008.0 - 0.0 - - 10 - - - -
20/01:00pm 33.0 E 7 - 1008.0 - 0.0 - - 10 - - - -
20/12:30pm 33.0 E 9 - 1008.0 - 0.0 - - 10 - - - -
20/12:00pm 32.4 E 7 - 1008.6 - 0.0 - - 10 - - - -
20/11:30am 32.0 E 9 - 1009.0 - 0.0 - - 10 - - - -
20/11:00am 31.0 E 9 - 1010.0 - 0.0 - - 10 - - - -
20/10:30am 31.0 E 10 - 1010.0 - 0.0 - - 10 - - - -
20/10:00am 30.0 E 11 - 1011.0 - 0.0 - - 10 - - - -
20/09:30am 30.0 E 9 - 1011.0 - 0.0 - - 10 - - - -
20/09:00am 30.0 E 10 - 1010.9 - 0.0 - - 10 - - - -
20/08:30am 29.0 ESE 9 - 1011.0 - 0.0 - - 10 - - - -
20/08:00am 29.0 ESE 8 - 1011.0 - 0.0 - - 10 - - - -
20/07:30am 28.0 ESE 7 - 1011.0 - 0.0 - - 10 - - - -
20/07:00am 28.0 ESE 7 - 1010.0 - 0.0 - - 10 - - - -
20/06:30am 27.0 SE 6 - 1010.0 - 0.0 - - 10 - - - -
20/06:00am 25.7 SE 6 - 1009.6 - 0.0 - - 10 - - - -
20/05:30am 25.0 SE 5 - 1009.0 - 0.0 - - 10 - - - -
20/05:00am 26.0 SE 5 - 1009.0 - 0.0 - - 10 - - - -
20/04:30am 26.0 SE 5 - 1009.0 - 0.0 - - 10 - - - -
20/04:00am 26.0 SE 5 - 1009.0 - 0.0 - - 10 - - - -
20/03:30am 26.0 SSE 5 - 1008.0 - 0.0 - - 10 - - - -
20/03:00am 25.7 SSE 5 - 1008.4 - 0.0 - - 10 - - - -
20/02:30am 26.0 SSE 5 - 1009.0 - 0.0 - - 10 - - - -
20/02:21am 25.0 SSE 5 - 1009.0 - 0.0 - - 10 - - - -
20/02:09am 25.0 SE 4 - 1009.0 - 0.0 - - 5 - - - -
20/02:00am 26.0 SE 4 - 1009.0 - 0.0 - - 10 - - - -
20/01:30am 25.0 SE 4 - 1009.0 - 0.0 - - 10 - - - -
20/01:00am 25.0 SE 4 - 1009.0 - 0.0 - - 10 - - - -
20/12:30am 25.0 SSE 4 - 1009.0 - 0.0 - - 10 - - - -
20/12:00am 24.7 SSE 3 - 1009.8 - 0.0 - - 10 - - - -
 
Date/Time
WST
Temp

°C
Wind Pressure Rain
since 9am
mm
Weather Cloud Vis
km
Sea
Height
m
Swell
Dir
 
Speed
knots
Gust
knots
hPa Trend Height
m
Period
s
Dir
19/11:30pm 25.0 SSE 4 - 1010.0 - 0.0 - - 10 - - - -
19/11:00pm 25.0 SE 3 - 1010.0 - 0.0 - - 10 - - - -
19/10:30pm 25.0 SE 3 - 1010.0 - 0.0 - - 10 - - - -
19/10:00pm 26.0 SE 3 - 1010.0 - 0.0 - - 10 - - - -
19/09:30pm 27.0 ESE 3 - 1010.0 - 0.0 - - 10 - - - -
19/09:00pm 26.7 ESE 4 - - - 0.0 - - - - - - -
19/08:30pm 27.0 E 4 - - - 0.0 - - - - - - -
19/08:00pm 26.0 E 3 - - - 0.0 - - - - - - -
19/07:30pm 27.0 ENE 3 - 1010.0 - 0.0 - - 10 - - - -
19/07:00pm 28.0 NE 4 - 1010.0 - 0.0 - - 10 - - - -
19/06:30pm 27.0 NE 3 - 1009.0 - 0.0 - - 10 - - - -
19/06:00pm 28.9 NE 3 - 1008.9 - 0.0 - - 10 - - - -
19/05:30pm 30.0 ENE 4 - 1009.0 - 0.0 - - 10 - - - -
19/05:00pm 31.0 ENE 6 - 1008.0 - 0.0 - - 10 - - - -
19/04:30pm 32.0 E 9 - 1008.0 - 0.0 - - 10 - - - -
19/04:00pm 32.0 E 9 - 1008.0 - 0.0 - - 10 - - - -
19/03:30pm 32.0 ENE 8 - 1008.0 - 0.0 - - 10 - - - -
19/03:00pm 32.6 ENE 10 - 1007.2 - 0.0 - - 10 - - - -
19/02:30pm 33.0 ENE 9 - 1007.0 - 0.0 - - 10 - - - -
19/02:00pm 34.0 ENE 8 - 1007.0 - 0.0 - Partly cloudy 10 - - - -
19/01:30pm 34.0 ENE 10 - 1008.0 - 0.0 - Partly cloudy 7 - - - -
19/01:00pm 33.0 E 9 - 1008.0 - 0.0 - Partly cloudy 10 - - - -
19/12:30pm 33.0 E 10 - 1008.0 - 0.0 - Partly cloudy 10 - - - -
19/12:00pm 32.8 E 8 - 1008.7 - 0.0 - - 10 - - - -
19/11:30am 32.0 E 8 - 1009.0 - 0.0 - - 10 - - - -
19/11:00am 32.0 ESE 8 - 1010.0 - 0.0 - Partly cloudy 10 - - - -
19/10:30am 31.0 ESE 9 - 1010.0 - 0.0 - Partly cloudy 10 - - - -
19/10:00am 31.0 E 9 - 1011.0 - 0.0 - Partly cloudy 10 - - - -
19/09:30am 31.0 ESE 7 - 1011.0 - 0.0 - Cloudy 10 - - - -
19/09:00am 29.6 E 8 - 1011.3 - 0.0 - Mostly cloudy 10 - - - -
19/08:30am 29.0 ESE 8 - 1011.0 - 0.0 - Cloudy 10 - - - -
19/08:00am 28.0 ESE 6 - 1011.0 - 0.0 - Cloudy 10 - - - -
19/07:30am 27.0 SE 5 - - - 0.0 - Cloudy - - - - -
19/07:00am 26.0 ESE 4 - 1011.0 - 0.0 - Partly cloudy 10 - - - -
19/06:30am 26.0 SE 3 - 1011.0 - 0.0 - Partly cloudy 10 - - - -
19/06:00am 26.3 SE 4 - 1010.8 - 0.0 - Mostly cloudy 10 - - - -
19/05:30am 26.0 ESE 4 - 1011.0 - 0.0 - Partly cloudy 10 - - - -
19/05:00am 27.0 ESE 6 - 1010.0 - 0.0 - Partly cloudy 10 - - - -
19/04:30am 27.0 SE 5 - 1010.0 - 0.0 - Partly cloudy 8 - - - -
19/04:00am 25.0 CALM 0 - 1010.0 - 0.0 - Partly cloudy 10 - - - -
19/03:30am 26.0 CALM 0 - 1010.0 - 0.0 - Partly cloudy 10 - - - -
19/03:00am 26.4 SSW 1 - 1010.0 - 0.0 - Partly cloudy 10 - - - -
19/02:30am 26.0 SSW 3 - 1010.0 - 0.0 - Partly cloudy 10 - - - -
19/02:00am 27.0 SSW 3 - 1010.0 - 0.0 - Partly cloudy 10 - - - -
19/01:30am 27.0 S 4 - 1010.0 - 0.0 - Partly cloudy 10 - - - -
19/01:00am 28.0 S 4 - 1010.0 - 0.0 - Cloudy 10 - - - -
19/12:30am 28.0 S 4 - 1011.0 - 0.0 - Partly cloudy 10 - - - -
19/12:00am 27.7 S 5 - 1010.8 - 0.0 - Cloudy 10 - - - -
 
Date/Time
WST
Temp

°C
Wind Pressure Rain
since 9am
mm
Weather Cloud Vis
km
Sea
Height
m
Swell
Dir
 
Speed
knots
Gust
knots
hPa Trend Height
m
Period
s
Dir
18/11:30pm 28.0 SSE 4 - 1011.0 - 0.0 - Partly cloudy 10 - - - -
18/11:00pm 27.0 SSE 4 - 1011.0 - 0.0 - Cloudy 10 - - - -
18/10:30pm 27.0 SE 3 - 1012.0 - 0.0 - Partly cloudy 10 - - - -
18/10:00pm 27.0 E 3 - 1012.0 - 0.0 - Partly cloudy 10 - - - -
18/09:30pm 27.0 ESE 3 - 1012.0 - 0.0 - Partly cloudy 10 - - - -
18/09:00pm 27.0 ESE 3 - 1011.7 - 0.0 - - 10 - - - -
18/08:30pm 28.0 ESE 3 - 1012.0 - 0.0 - Partly cloudy 10 - - - -
18/08:00pm 29.0 E 3 - 1012.0 - 0.0 - Partly cloudy 10 - - - -
18/07:30pm 29.0 E 4 - 1011.0 - 0.0 - - 10 - - - -
18/07:00pm 30.0 E 5 - 1011.0 - 0.0 - - 10 - - - -

Other Formats:

Comma delimited format used in spreadsheet applications
http://www.bom.gov.au/fwo/IDW60701/IDW60701.95101.axf

JavaScript Object Notation format (JSON) in row-major order
http://www.bom.gov.au/fwo/IDW60701/IDW60701.95101.json